Time,TemperatureF,DewpointF,PressureIn,WindDirection,WindDirectionDegrees,WindSpeedMPH,WindSpeedGustMPH,Humidity,HourlyPrecipIn,Conditions,Clouds,dailyrainin,SoftwareType,DateUTC
2013-01-20 00:09:00,44.4,36.3,29.82,North,5,20.0,20.0,73,0.00,,,0.00,Wunderground v.1.15,2013-01-20 05:09:00,
2013-01-20 00:19:00,44.3,36.5,29.81,North,5,17.0,19.0,74,0.00,,,0.00,Wunderground v.1.15,2013-01-20 05:19:00,
2013-01-20 00:29:00,44.2,36.4,29.81,North,5,18.0,18.0,74,0.00,,,0.00,Wunderground v.1.15,2013-01-20 05:29:00,
2013-01-20 00:39:00,44.1,36.3,29.81,North,5,19.0,19.0,74,0.00,,,0.00,Wunderground v.1.15,2013-01-20 05:39:00,
2013-01-20 00:49:00,44.1,36.3,29.79,North,5,17.0,21.0,74,0.00,,,0.00,Wunderground v.1.15,2013-01-20 05:49:00,
2013-01-20 00:59:00,43.9,36.1,29.79,North,5,18.0,18.0,74,0.00,,,0.00,Wunderground v.1.15,2013-01-20 05:59:00,
2013-01-20 01:09:00,43.6,36.2,29.79,North,5,15.0,15.0,75,0.00,,,0.00,Wunderground v.1.15,2013-01-20 06:09:00,
2013-01-20 01:19:00,43.3,35.6,29.79,North,5,16.0,16.0,74,0.00,,,0.00,Wunderground v.1.15,2013-01-20 06:19:00,
2013-01-20 01:29:00,43.1,35.4,29.79,North,5,16.0,16.0,74,0.00,,,0.00,Wunderground v.1.15,2013-01-20 06:29:00,
2013-01-20 01:39:00,42.8,35.1,29.78,North,5,15.0,15.0,74,0.00,,,0.00,Wunderground v.1.15,2013-01-20 06:39:00,
2013-01-20 01:49:00,42.7,35.0,29.76,North,5,17.0,26.0,74,0.00,,,0.00,Wunderground v.1.15,2013-01-20 06:49:00,
2013-01-20 01:59:00,42.6,34.9,29.76,North,5,16.0,16.0,74,0.00,,,0.00,Wunderground v.1.15,2013-01-20 06:59:00,
2013-01-20 02:09:00,42.6,34.9,29.75,North,5,16.0,16.0,74,0.00,,,0.00,Wunderground v.1.15,2013-01-20 07:09:00,
2013-01-20 02:19:00,42.8,34.7,29.75,North,5,16.0,16.0,73,0.00,,,0.00,Wunderground v.1.15,2013-01-20 07:19:00,
2013-01-20 02:29:00,42.7,34.6,29.75,North,5,16.0,22.0,73,0.00,,,0.00,Wunderground v.1.15,2013-01-20 07:29:00,
2013-01-20 02:39:00,42.7,34.6,29.76,North,5,15.0,16.0,73,0.00,,,0.00,Wunderground v.1.15,2013-01-20 07:39:00,
2013-01-20 02:49:00,42.7,34.6,29.75,North,5,16.0,16.0,73,0.00,,,0.00,Wunderground v.1.15,2013-01-20 07:49:00,
2013-01-20 02:59:00,42.7,34.6,29.75,North,5,16.0,16.0,73,0.00,,,0.00,Wunderground v.1.15,2013-01-20 07:59:00,
2013-01-20 03:09:00,42.7,35.0,29.74,North,5,15.0,21.0,74,0.00,,,0.00,Wunderground v.1.15,2013-01-20 08:09:00,
2013-01-20 03:19:00,42.7,35.3,29.73,North,5,15.0,15.0,75,0.00,,,0.00,Wunderground v.1.15,2013-01-20 08:19:00,
2013-01-20 03:29:00,42.5,35.1,29.73,North,5,15.0,15.0,75,0.00,,,0.00,Wunderground v.1.15,2013-01-20 08:29:00,
2013-01-20 03:39:00,42.4,35.0,29.73,North,5,15.0,16.0,75,0.00,,,0.00,Wunderground v.1.15,2013-01-20 08:39:00,
2013-01-20 03:49:00,42.3,34.9,29.72,North,5,15.0,15.0,75,0.00,,,0.00,Wunderground v.1.15,2013-01-20 08:49:00,
2013-01-20 03:59:00,42.1,34.7,29.72,North,5,13.0,17.0,75,0.00,,,0.00,Wunderground v.1.15,2013-01-20 08:59:00,
2013-01-20 04:09:00,42.0,34.3,29.72,North,5,15.0,18.0,74,0.00,,,0.00,Wunderground v.1.15,2013-01-20 09:09:00,
2013-01-20 04:19:00,42.0,34.3,29.70,North,5,16.0,16.0,74,0.00,,,0.00,Wunderground v.1.15,2013-01-20 09:19:00,
2013-01-20 04:28:00,41.8,34.1,29.70,North,5,13.0,13.0,74,0.00,,,0.00,Wunderground v.1.15,2013-01-20 09:28:00,
2013-01-20 04:38:00,41.5,34.2,29.70,North,5,11.0,12.0,75,0.00,,,0.00,Wunderground v.1.15,2013-01-20 09:38:00,
2013-01-20 04:49:00,41.2,33.9,29.70,North,5,12.0,12.0,75,0.00,,,0.00,Wunderground v.1.15,2013-01-20 09:49:00,
2013-01-20 04:59:00,41.1,33.4,29.70,North,5,12.0,17.0,74,0.00,,,0.00,Wunderground v.1.15,2013-01-20 09:59:00,
2013-01-20 05:09:00,40.9,33.6,29.69,North,5,12.0,12.0,75,0.00,,,0.00,Wunderground v.1.15,2013-01-20 10:09:00,
2013-01-20 05:19:00,40.7,33.4,29.69,North,5,11.0,11.0,75,0.00,,,0.00,Wunderground v.1.15,2013-01-20 10:19:00,
2013-01-20 05:29:00,40.6,33.3,29.69,North,5,12.0,12.0,75,0.00,,,0.00,Wunderground v.1.15,2013-01-20 10:29:00,
2013-01-20 05:39:00,40.5,33.2,29.67,North,5,12.0,14.0,75,0.00,,,0.00,Wunderground v.1.15,2013-01-20 10:39:00,
2013-01-20 05:49:00,40.4,33.1,29.66,North,5,13.0,13.0,75,0.00,,,0.00,Wunderground v.1.15,2013-01-20 10:49:00,
2013-01-20 05:59:00,40.3,33.0,29.66,North,5,13.0,13.0,75,0.00,,,0.00,Wunderground v.1.15,2013-01-20 10:59:00,
2013-01-20 06:09:00,40.3,33.0,29.65,North,5,14.0,19.0,75,0.00,,,0.00,Wunderground v.1.15,2013-01-20 11:09:00,
2013-01-20 06:19:00,40.2,32.9,29.64,North,5,13.0,13.0,75,0.00,,,0.00,Wunderground v.1.15,2013-01-20 11:19:00,
2013-01-20 06:29:00,40.2,33.2,29.64,North,5,14.0,15.0,76,0.00,,,0.00,Wunderground v.1.15,2013-01-20 11:29:00,
2013-01-20 06:39:00,40.2,33.2,29.64,North,5,14.0,14.0,76,0.00,,,0.00,Wunderground v.1.15,2013-01-20 11:39:00,
2013-01-20 06:49:00,40.3,33.0,29.65,North,5,14.0,20.0,75,0.00,,,0.00,Wunderground v.1.15,2013-01-20 11:49:00,
2013-01-20 06:59:00,40.4,33.1,29.65,North,5,14.0,14.0,75,0.00,,,0.00,Wunderground v.1.15,2013-01-20 11:59:00,
2013-01-20 07:09:00,40.6,33.3,29.64,North,5,15.0,15.0,75,0.00,,,0.00,Wunderground v.1.15,2013-01-20 12:09:00,
2013-01-20 07:19:00,40.7,33.4,29.64,North,5,14.0,19.0,75,0.00,,,0.00,Wunderground v.1.15,2013-01-20 12:19:00,
2013-01-20 07:29:00,40.7,33.4,29.64,North,5,13.0,13.0,75,0.00,,,0.00,Wunderground v.1.15,2013-01-20 12:29:00,
2013-01-20 07:39:00,41.0,33.3,29.64,North,5,14.0,14.0,74,0.00,,,0.00,Wunderground v.1.15,2013-01-20 12:39:00,
2013-01-20 07:49:00,41.1,33.4,29.64,North,5,12.0,13.0,74,0.00,,,0.00,Wunderground v.1.15,2013-01-20 12:49:00,
2013-01-20 07:59:00,41.4,33.4,29.64,North,5,14.0,14.0,73,0.00,,,0.00,Wunderground v.1.15,2013-01-20 12:59:00,
2013-01-20 08:09:00,41.9,33.5,29.64,North,5,13.0,13.0,72,0.00,,,0.00,Wunderground v.1.15,2013-01-20 13:09:00,
2013-01-20 08:19:00,42.2,33.5,29.64,North,5,13.0,15.0,71,0.00,,,0.00,Wunderground v.1.15,2013-01-20 13:19:00,
2013-01-20 08:29:00,42.7,33.6,29.64,North,5,14.0,17.0,70,0.00,,,0.00,Wunderground v.1.15,2013-01-20 13:29:00,
2013-01-20 08:39:00,43.3,33.8,29.63,North,5,14.0,14.0,69,0.00,,,0.00,Wunderground v.1.15,2013-01-20 13:39:00,
2013-01-20 08:49:00,43.8,33.9,29.64,North,5,13.0,13.0,68,0.00,,,0.00,Wunderground v.1.15,2013-01-20 13:49:00,
2013-01-20 08:59:00,44.4,33.7,29.64,North,5,13.0,13.0,66,0.00,,,0.00,Wunderground v.1.15,2013-01-20 13:59:00,
2013-01-20 09:09:00,44.9,33.8,29.64,North,5,13.0,16.0,65,0.00,,,0.00,Wunderground v.1.15,2013-01-20 14:09:00,
2013-01-20 09:19:00,45.3,34.2,29.64,North,5,14.0,14.0,65,0.00,,,0.00,Wunderground v.1.15,2013-01-20 14:19:00,
2013-01-20 09:29:00,45.8,34.3,29.64,North,5,14.0,21.0,64,0.00,,,0.00,Wunderground v.1.15,2013-01-20 14:29:00,
2013-01-20 09:39:00,46.4,34.5,29.65,North,5,15.0,15.0,63,0.00,,,0.00,Wunderground v.1.15,2013-01-20 14:39:00,
2013-01-20 09:50:00,47.1,34.7,29.65,North,5,14.0,15.0,62,0.00,,,0.00,Wunderground v.1.15,2013-01-20 14:50:00,
2013-01-20 09:59:00,47.6,34.4,29.65,North,5,15.0,15.0,60,0.00,,,0.00,Wunderground v.1.15,2013-01-20 14:59:00,
2013-01-20 10:09:00,48.5,33.9,29.65,North,5,14.0,14.0,57,0.00,,,0.00,Wunderground v.1.15,2013-01-20 15:09:00,
2013-01-20 10:19:00,49.2,33.7,29.64,North,5,13.0,21.0,55,0.00,,,0.00,Wunderground v.1.15,2013-01-20 15:19:00,
2013-01-20 10:29:00,49.5,33.1,29.64,North,5,13.0,13.0,53,0.00,,,0.00,Wunderground v.1.15,2013-01-20 15:29:00,
2013-01-20 10:40:00,50.0,33.1,29.64,North,5,10.0,12.0,52,0.00,,,0.00,Wunderground v.1.15,2013-01-20 15:40:00,
2013-01-20 10:49:00,50.5,33.0,29.63,North,5,10.0,10.0,51,0.00,,,0.00,Wunderground v.1.15,2013-01-20 15:49:00,
2013-01-20 10:59:00,51.3,32.8,29.63,North,5,9.0,16.0,49,0.00,,,0.00,Wunderground v.1.15,2013-01-20 15:59:00,
2013-01-20 11:09:00,51.6,32.5,29.62,North,5,13.0,15.0,48,0.00,,,0.00,Wunderground v.1.15,2013-01-20 16:09:00,
2013-01-20 11:19:00,51.6,33.0,29.61,North,5,16.0,16.0,49,0.00,,,0.00,Wunderground v.1.15,2013-01-20 16:19:00,
2013-01-20 11:29:00,51.8,33.2,29.61,North,5,13.0,13.0,49,0.00,,,0.00,Wunderground v.1.15,2013-01-20 16:29:00,
2013-01-20 11:39:00,52.6,33.5,29.59,North,5,8.0,15.0,48,0.00,,,0.00,Wunderground v.1.15,2013-01-20 16:39:00,
2013-01-20 11:49:00,52.9,33.2,29.59,North,5,12.0,13.0,47,0.00,,,0.00,Wunderground v.1.15,2013-01-20 16:49:00,
2013-01-20 11:59:00,53.1,32.8,29.59,North,5,11.0,26.0,46,0.00,,,0.00,Wunderground v.1.15,2013-01-20 16:59:00,
2013-01-20 12:09:00,53.2,33.5,29.58,North,5,11.0,11.0,47,0.00,,,0.00,Wunderground v.1.15,2013-01-20 17:09:00,
2013-01-20 12:19:00,53.6,32.8,29.58,North,5,10.0,10.0,45,0.00,,,0.00,Wunderground v.1.15,2013-01-20 17:19:00,
2013-01-20 12:29:00,53.9,31.3,29.58,North,5,9.0,9.0,42,0.00,,,0.00,Wunderground v.1.15,2013-01-20 17:29:00,
2013-01-20 12:39:00,53.4,30.3,29.57,North,5,10.0,10.0,41,0.00,,,0.00,Wunderground v.1.15,2013-01-20 17:39:00,
2013-01-20 12:49:00,53.3,30.8,29.57,North,5,11.0,14.0,42,0.00,,,0.00,Wunderground v.1.15,2013-01-20 17:49:00,
2013-01-20 12:59:00,53.3,31.4,29.57,North,5,8.0,17.0,43,0.00,,,0.00,Wunderground v.1.15,2013-01-20 17:59:00,
2013-01-20 13:09:00,52.1,33.0,29.57,North,5,9.0,15.0,48,0.00,,,0.00,Wunderground v.1.15,2013-01-20 18:09:00,
2013-01-20 13:19:00,51.8,31.1,29.57,North,5,10.0,10.0,45,0.00,,,0.00,Wunderground v.1.15,2013-01-20 18:19:00,
2013-01-20 13:29:00,51.2,31.6,29.57,North,5,10.0,14.0,47,0.00,,,0.00,Wunderground v.1.15,2013-01-20 18:29:00,
2013-01-20 13:39:00,50.5,33.0,29.57,North,5,9.0,9.0,51,0.00,,,0.00,Wunderground v.1.15,2013-01-20 18:39:00,
2013-01-20 13:49:00,50.3,31.3,29.57,North,5,9.0,9.0,48,0.00,,,0.00,Wunderground v.1.15,2013-01-20 18:49:00,
2013-01-20 13:59:00,50.5,31.5,29.57,North,5,8.0,15.0,48,0.00,,,0.00,Wunderground v.1.15,2013-01-20 18:59:00,
2013-01-20 14:08:00,50.0,32.1,29.57,North,5,10.0,13.0,50,0.00,,,0.00,Wunderground v.1.15,2013-01-20 19:08:00,
2013-01-20 14:19:00,49.5,33.1,29.58,North,5,9.0,9.0,53,0.00,,,0.00,Wunderground v.1.15,2013-01-20 19:19:00,
2013-01-20 14:29:00,49.1,33.2,29.58,North,5,9.0,17.0,54,0.00,,,0.00,Wunderground v.1.15,2013-01-20 19:29:00,
2013-01-20 14:39:00,48.4,33.4,29.58,North,5,10.0,10.0,56,0.00,,,0.00,Wunderground v.1.15,2013-01-20 19:39:00,
2013-01-20 14:50:00,48.0,33.5,29.59,North,5,9.0,9.0,57,0.00,,,0.00,Wunderground v.1.15,2013-01-20 19:50:00,
2013-01-20 14:59:00,47.8,32.4,29.59,North,5,9.0,12.0,55,0.00,,,0.00,Wunderground v.1.15,2013-01-20 19:59:00,
2013-01-20 15:09:00,47.9,31.6,29.60,North,5,8.0,8.0,53,0.00,,,0.00,Wunderground v.1.15,2013-01-20 20:09:00,
2013-01-20 15:19:00,48.0,30.7,29.61,North,5,9.0,10.0,51,0.00,,,0.00,Wunderground v.1.15,2013-01-20 20:19:00,
2013-01-20 15:30:00,48.0,30.2,29.61,North,5,9.0,9.0,50,0.00,,,0.00,Wunderground v.1.15,2013-01-20 20:30:00,
2013-01-20 15:39:00,48.1,28.8,29.61,North,5,8.0,8.0,47,0.00,,,0.00,Wunderground v.1.15,2013-01-20 20:39:00,
2013-01-20 15:49:00,48.4,27.5,29.62,North,5,8.0,8.0,44,0.00,,,0.00,Wunderground v.1.15,2013-01-20 20:49:00,
2013-01-20 15:59:00,48.7,25.4,29.62,North,5,8.0,14.0,40,0.00,,,0.00,Wunderground v.1.15,2013-01-20 20:59:00,
2013-01-20 16:09:00,48.8,24.3,29.62,North,5,10.0,10.0,38,0.00,,,0.00,Wunderground v.1.15,2013-01-20 21:09:00,
2013-01-20 16:19:00,48.3,24.5,29.63,North,5,9.0,9.0,39,0.00,,,0.00,Wunderground v.1.15,2013-01-20 21:19:00,
2013-01-20 16:29:00,47.4,24.9,29.63,North,5,8.0,8.0,41,0.00,,,0.00,Wunderground v.1.15,2013-01-20 21:29:00,
2013-01-20 16:39:00,47.2,22.9,29.64,North,5,10.0,20.0,38,0.00,,,0.00,Wunderground v.1.15,2013-01-20 21:39:00,
2013-01-20 16:49:00,46.8,24.9,29.65,North,5,10.0,15.0,42,0.00,,,0.00,Wunderground v.1.15,2013-01-20 21:49:00,
2013-01-20 16:59:00,45.9,25.7,29.65,North,5,10.0,20.0,45,0.00,,,0.00,Wunderground v.1.15,2013-01-20 21:59:00,
2013-01-20 17:09:00,45.6,24.9,29.66,North,5,10.0,10.0,44,0.00,,,0.00,Wunderground v.1.15,2013-01-20 22:09:00,
2013-01-20 17:19:00,45.2,26.7,29.67,North,5,10.0,11.0,48,0.00,,,0.00,Wunderground v.1.15,2013-01-20 22:19:00,
2013-01-20 17:29:00,44.7,25.7,29.67,North,5,11.0,11.0,47,0.00,,,0.00,Wunderground v.1.15,2013-01-20 22:29:00,
2013-01-20 17:39:00,44.5,27.0,29.68,North,5,10.0,10.0,50,0.00,,,0.00,Wunderground v.1.15,2013-01-20 22:39:00,
2013-01-20 17:49:00,44.0,27.5,29.69,North,5,8.0,10.0,52,0.00,,,0.00,Wunderground v.1.15,2013-01-20 22:49:00,
2013-01-20 17:59:00,43.7,28.1,29.69,North,5,8.0,8.0,54,0.00,,,0.00,Wunderground v.1.15,2013-01-20 22:59:00,
2013-01-20 18:09:00,43.6,27.1,29.70,North,5,10.0,10.0,52,0.00,,,0.00,Wunderground v.1.15,2013-01-20 23:09:00,
2013-01-20 18:19:00,43.6,27.6,29.71,North,5,11.0,14.0,53,0.00,,,0.00,Wunderground v.1.15,2013-01-20 23:19:00,
2013-01-20 18:29:00,42.9,27.8,29.71,North,5,15.0,15.0,55,0.00,,,0.00,Wunderground v.1.15,2013-01-20 23:29:00,
2013-01-20 18:39:00,42.0,28.3,29.72,North,5,13.0,13.0,58,0.00,,,0.00,Wunderground v.1.15,2013-01-20 23:39:00,
2013-01-20 18:49:00,41.8,28.5,29.73,North,5,13.0,16.0,59,0.00,,,0.00,Wunderground v.1.15,2013-01-20 23:49:00,
2013-01-20 18:59:00,41.3,26.8,29.73,North,5,18.0,21.0,56,0.00,,,0.00,Wunderground v.1.15,2013-01-20 23:59:00,
2013-01-20 19:09:00,40.6,24.8,29.75,North,5,19.0,19.0,53,0.00,,,0.00,Wunderground v.1.15,2013-01-21 00:09:00,
2013-01-20 19:19:00,40.1,23.4,29.76,North,5,19.0,19.0,51,0.00,,,0.00,Wunderground v.1.15,2013-01-21 00:19:00,
2013-01-20 19:29:00,39.6,22.5,29.76,North,5,12.0,12.0,50,0.00,,,0.00,Wunderground v.1.15,2013-01-21 00:29:00,
2013-01-20 19:39:00,39.2,22.6,29.77,North,5,10.0,18.0,51,0.00,,,0.00,Wunderground v.1.15,2013-01-21 00:39:00,
2013-01-20 19:49:00,38.9,22.8,29.78,North,5,9.0,9.0,52,0.00,,,0.00,Wunderground v.1.15,2013-01-21 00:49:00,
2013-01-20 19:59:00,38.5,21.0,29.78,North,5,9.0,9.0,49,0.00,,,0.00,Wunderground v.1.15,2013-01-21 00:59:00,
2013-01-20 20:09:00,38.2,20.7,29.80,North,5,10.0,10.0,49,0.00,,,0.00,Wunderground v.1.15,2013-01-21 01:09:00,
2013-01-20 20:19:00,37.8,18.3,29.81,North,5,10.0,10.0,45,0.00,,,0.00,Wunderground v.1.15,2013-01-21 01:19:00,
2013-01-20 20:29:00,37.5,20.5,29.81,North,5,9.0,9.0,50,0.00,,,0.00,Wunderground v.1.15,2013-01-21 01:29:00,
2013-01-20 20:39:00,37.3,20.3,29.82,North,5,9.0,9.0,50,0.00,,,0.00,Wunderground v.1.15,2013-01-21 01:39:00,
2013-01-20 20:49:00,37.1,20.2,29.83,North,5,8.0,10.0,50,0.00,,,0.00,Wunderground v.1.15,2013-01-21 01:49:00,
2013-01-20 20:59:00,37.0,20.5,29.83,North,5,11.0,11.0,51,0.00,,,0.00,Wunderground v.1.15,2013-01-21 01:59:00,
2013-01-20 21:09:00,36.6,20.6,29.83,North,5,15.0,19.0,52,0.00,,,0.00,Wunderground v.1.15,2013-01-21 02:09:00,
2013-01-20 21:19:00,36.3,21.7,29.84,North,9,16.0,18.0,55,0.00,,,0.00,Wunderground v.1.15,2013-01-21 02:19:00,
2013-01-20 21:29:00,35.8,20.3,29.84,North,5,19.0,19.0,53,0.00,,,0.00,Wunderground v.1.15,2013-01-21 02:29:00,
2013-01-20 21:39:00,35.6,21.4,29.84,North,5,15.0,17.0,56,0.00,,,0.00,Wunderground v.1.15,2013-01-21 02:39:00,
2013-01-20 21:49:00,35.2,19.3,29.84,North,5,20.0,20.0,52,0.00,,,0.00,Wunderground v.1.15,2013-01-21 02:49:00,
2013-01-20 21:59:00,34.9,20.4,29.84,North,5,19.0,19.0,55,0.00,,,0.00,Wunderground v.1.15,2013-01-21 02:59:00,
2013-01-20 22:09:00,34.7,19.7,29.84,North,5,17.0,17.0,54,0.00,,,0.00,Wunderground v.1.15,2013-01-21 03:09:00,
2013-01-20 22:19:00,34.7,21.0,29.84,North,5,17.0,17.0,57,0.00,,,0.00,Wunderground v.1.15,2013-01-21 03:19:00,
2013-01-20 22:29:00,34.3,19.4,29.84,North,5,20.0,25.0,54,0.00,,,0.00,Wunderground v.1.15,2013-01-21 03:29:00,
2013-01-20 22:39:00,34.0,21.2,29.85,North,5,20.0,23.0,59,0.00,,,0.00,Wunderground v.1.15,2013-01-21 03:39:00,
2013-01-20 22:49:00,33.9,19.8,29.86,North,5,20.0,20.0,56,0.00,,,0.00,Wunderground v.1.15,2013-01-21 03:49:00,
2013-01-20 22:59:00,33.6,18.3,29.86,North,5,18.0,22.0,53,0.00,,,0.00,Wunderground v.1.15,2013-01-21 03:59:00,
2013-01-20 23:09:00,33.2,19.6,29.86,North,5,21.0,24.0,57,0.00,,,0.00,Wunderground v.1.15,2013-01-21 04:09:00,
2013-01-20 23:19:00,33.0,19.4,29.86,North,5,19.0,19.0,57,0.00,,,0.00,Wunderground v.1.15,2013-01-21 04:19:00,
2013-01-20 23:30:00,32.6,17.8,29.86,North,5,20.0,20.0,54,0.00,,,0.00,Wunderground v.1.15,2013-01-21 04:30:00,
2013-01-20 23:40:00,32.3,17.9,29.86,North,5,18.0,21.0,55,0.00,,,0.00,Wunderground v.1.15,2013-01-21 04:40:00,
2013-01-20 23:50:00,32.0,18.1,29.89,North,5,15.0,15.0,56,0.00,,,0.00,Wunderground v.1.15,2013-01-21 04:50:00,